Weather in Corner Brook

Canada     48°57′05″N   57°57′02″W
temp.,
°C
wind,
m/s
gust,
m/s
humid.,
%
clouds,
%
prec.,
mm/h
press.,
hPa
HPBL,
m
23 may, mon
mon2300:30+11sse39969 0.0 1013328
03:30+13s41896100 0.0 1011914
06:30+14ssw41596100 0.6 1009824
09:30+14wsw3996100 1.1 1010729
12:30+12w1595100 0.6 1012450
15:30+9nw2595100 1.1 1013447
18:30+9nw358093 0.1 1016563
21:30+5wnw119383 0.1 101923
24 may, tue
tue2400:30+5ene149499 0.0 1021167
03:30+4e1196100 0.0 102220
06:30+4wnw1193100 0.0 102357
09:30+8nw46562 0.0 10241079
12:30+10nw56420 0.0 10251193
15:30+11nw57370 0.0 10251071
18:30+10nw35433 0.0 1026812
21:30+3wnw11655 0.0 102818
25 may, wed
wed2500:30+3ssw1163100 0.0 102810
03:30+3ssw116462 0.0 102710
06:30+3ssw1166100 0.0 102718
09:30+11sw23445 0.0 1026667
12:30+14wnw45343 0.0 10241653
15:30+15w45350 0.0 10231619
18:30+13wsw474194 0.0 10221002
21:30+6ssw23730 0.0 102276
26 may, thu
thu2600:30+7ssw5125599 0.1 1021581
03:30+7sw31065100 0.1 1020642
06:30+6wnw1283100 0.0 1020122
09:30+6wnw249191 0.0 1022446
12:30+9nw6836100 0.0 10221262
15:30+8nw5835100 0.0 10231296
18:30+7nnw454062 0.0 1022876
21:30+2nw115982 0.0 102412
27 may, fri
fri2700:30+3sw1156100 0.0 102310
03:30+3se115898 0.1 102121
06:30+4sse1266100 0.1 102076
09:30+8se3549100 0.1 1018757
12:30+9se4662100 0.0 10171321
15:30+7se4783100 0.2 1016783
18:30+7ese488043 0.1 1015701
21:30+5e258874 0.1 1016251